When you browse on this site, cookies collect data to enhance your experience and personalize the content and advertising you see.
Visit our Privacy Policy to learn more. By continuing to use the site, you agree to this use of cookies and data.
  • In Switzerland
  • List of Countries
  • For 7 days
  • Water Temperature
  • Weather Map
  • Weather Widgets
  • user-avatar
    Login

    Hourly Weather Montilla

    Today, 18 September, Wednesday

    Time Temperature Precipitation Wind Pressure Humidity
    00:00 +24°C° 0 mm 1 mps 734 mmHg 65%
    01:00 +23°C° 0 mm 1 mps 734 mmHg 69%
    02:00 +23°C° 0 mm 1 mps 734 mmHg 72%
    03:00 +22°C° 0 mm 1 mps 733 mmHg 76%
    04:00 +22°C° 0 mm 1 mps 733 mmHg 77%
    05:00 +20°C° 0 mm 0 mps 734 mmHg 79%
    06:00 +19°C° 0 mm 0 mps 734 mmHg 81%
    07:00 +20°C° 0 mm 0 mps 734 mmHg 75%
    08:00 +24°C° 0 mm 1 mps 734 mmHg 68%
    09:00 +25°C° 0 mm 1 mps 735 mmHg 62%
    10:00 +26°C° 0 mm 1 mps 735 mmHg 56%
    11:00 +28°C° 0 mm 1 mps 735 mmHg 49%
    12:00 +29°C° 0 mm 2 mps 735 mmHg 43%
    13:00 +30°C° 0 mm 2 mps 734 mmHg 39%
    14:00 +31°C° 0 mm 2 mps 734 mmHg 36%
    15:00 +31°C° 0 mm 3 mps 734 mmHg 33%
    16:00 +31°C° 0 mm 3 mps 734 mmHg 34%
    17:00 +30°C° 0 mm 2 mps 734 mmHg 34%
    18:00 +29°C° 0 mm 2 mps 734 mmHg 35%
    19:00 +28°C° 0 mm 2 mps 734 mmHg 38%
    20:00 +27°C° 0 mm 2 mps 734 mmHg 41%
    21:00 +25°C° 0 mm 3 mps 734 mmHg 45%
    22:00 +24°C° 0 mm 2 mps 734 mmHg 49%
    23:00 +23°C° 0 mm 2 mps 734 mmHg 54%

    Tomorrow, 19 September, Thursday

    Time Temperature Precipitation Wind Pressure Humidity
    00:00 +21°C° 0 mm 2 mps 734 mmHg 58%
    01:00 +22°C° 0 mm 1 mps 734 mmHg 61%
    02:00 +21°C° 0 mm 1 mps 734 mmHg 63%
    03:00 +21°C° 0 mm 1 mps 734 mmHg 66%
    04:00 +19°C° 0 mm 0 mps 734 mmHg 66%
    05:00 +18°C° 0 mm 0 mps 734 mmHg 67%
    06:00 +18°C° 0 mm 0 mps 734 mmHg 67%
    07:00 +20°C° 0 mm 0 mps 734 mmHg 61%
    08:00 +21°C° 0 mm 0 mps 734 mmHg 54%
    09:00 +23°C° 0 mm 0 mps 735 mmHg 47%
    10:00 +26°C° 0 mm 1 mps 735 mmHg 42%
    11:00 +28°C° 0 mm 1 mps 734 mmHg 37%
    12:00 +30°C° 0 mm 2 mps 734 mmHg 32%
    13:00 +30°C° 0 mm 2 mps 734 mmHg 29%
    14:00 +31°C° 0 mm 2 mps 734 mmHg 26%
    15:00 +33°C° 0 mm 3 mps 733 mmHg 24%
    16:00 +31°C° 0 mm 2 mps 733 mmHg 25%
    17:00 +30°C° 0 mm 2 mps 733 mmHg 26%
    18:00 +30°C° 0 mm 2 mps 733 mmHg 28%
    19:00 +28°C° 0 mm 2 mps 733 mmHg 32%
    20:00 +27°C° 0 mm 2 mps 734 mmHg 36%
    21:00 +25°C° 0 mm 2 mps 734 mmHg 40%
    22:00 +25°C° 0 mm 2 mps 734 mmHg 46%
    23:00 +24°C° 0 mm 2 mps 734 mmHg 51%

    Day after tomorrow, 20 September, Friday

    Time Temperature Precipitation Wind Pressure Humidity
    00:00 +23°C° 0 mm 1 mps 733 mmHg 56%
    01:00 +23°C° 0 mm 1 mps 733 mmHg 58%
    02:00 +22°C° 0 mm 1 mps 733 mmHg 60%
    03:00 +20°C° 0 mm 0 mps 733 mmHg 61%
    04:00 +20°C° 0 mm 0 mps 733 mmHg 62%
    05:00 +19°C° 0 mm 0 mps 733 mmHg 63%
    06:00 +19°C° 0 mm 0 mps 733 mmHg 64%
    07:00 +20°C° 0 mm 0 mps 733 mmHg 58%
    08:00 +22°C° 0 mm 0 mps 733 mmHg 52%
    09:00 +25°C° 0 mm 1 mps 733 mmHg 47%
    10:00 +26°C° 0 mm 2 mps 733 mmHg 43%
    11:00 +27°C° 0 mm 2 mps 733 mmHg 40%
    12:00 +29°C° 0 mm 3 mps 733 mmHg 37%
    13:00 +29°C° 0 mm 3 mps 733 mmHg 38%
    14:00 +29°C° 0 mm 4 mps 732 mmHg 40%
    15:00 +29°C° 0 mm 4 mps 732 mmHg 41%
    16:00 +29°C° 0 mm 3 mps 732 mmHg 44%
    17:00 +28°C° 0 mm 3 mps 732 mmHg 47%
    18:00 +27°C° 0 mm 3 mps 731 mmHg 49%
    19:00 +26°C° 0.1 mm 3 mps 732 mmHg 51%
    20:00 +25°C° 0.1 mm 3 mps 732 mmHg 53%
    21:00 +24°C° 0.1 mm 3 mps 732 mmHg 55%
    22:00 +22°C° 0 mm 3 mps 732 mmHg 57%
    23:00 +23°C° 0 mm 2 mps 732 mmHg 59%

    21 September, Saturday

    Time Temperature Precipitation Wind Pressure Humidity
    00:00 +21°C° 0 mm 2 mps 732 mmHg 61%
    01:00 +22°C° 0 mm 1 mps 732 mmHg 64%
    02:00 +21°C° 0 mm 1 mps 732 mmHg 66%
    03:00 +20°C° 0 mm 1 mps 732 mmHg 69%
    04:00 +20°C° 0 mm 1 mps 732 mmHg 70%
    05:00 +18°C° 0 mm 0 mps 731 mmHg 72%
    06:00 +17°C° 0 mm 0 mps 731 mmHg 73%
    07:00 +21°C° 0 mm 1 mps 732 mmHg 68%
    08:00 +22°C° 0 mm 1 mps 732 mmHg 63%
    09:00 +23°C° 0 mm 1 mps 732 mmHg 57%
    10:00 +25°C° 0 mm 2 mps 732 mmHg 53%
    11:00 +26°C° 0 mm 2 mps 732 mmHg 48%
    12:00 +28°C° 0 mm 3 mps 732 mmHg 43%
    13:00 +28°C° 0 mm 3 mps 732 mmHg 42%
    14:00 +28°C° 0 mm 4 mps 731 mmHg 41%
    15:00 +28°C° 0 mm 4 mps 731 mmHg 39%
    16:00 +27°C° 0 mm 4 mps 731 mmHg 42%
    17:00 +26°C° 0 mm 3 mps 731 mmHg 45%
    18:00 +25°C° 0 mm 3 mps 731 mmHg 47%
    19:00 +24°C° 0 mm 3 mps 732 mmHg 52%
    20:00 +22°C° 0 mm 3 mps 732 mmHg 57%
    21:00 +21°C° 0 mm 3 mps 733 mmHg 62%
    22:00 +21°C° 0 mm 2 mps 733 mmHg 65%
    23:00 +20°C° 0 mm 2 mps 733 mmHg 68%

    22 September, Sunday

    Time Temperature Precipitation Wind Pressure Humidity
    00:00 +21°C° 0 mm 1 mps 733 mmHg 71%
    01:00 +21°C° 0 mm 1 mps 733 mmHg 71%
    02:00 +21°C° 0 mm 1 mps 733 mmHg 72%
    03:00 +21°C° 0 mm 1 mps 732 mmHg 72%
    04:00 +19°C° 0 mm 0 mps 733 mmHg 72%
    05:00 +19°C° 0 mm 0 mps 733 mmHg 73%
    06:00 +18°C° 0 mm 0 mps 733 mmHg 73%
    07:00 +19°C° 0 mm 0 mps 733 mmHg 70%
    08:00 +20°C° 0 mm 0 mps 734 mmHg 67%
    09:00 +23°C° 0 mm 1 mps 734 mmHg 64%
    10:00 +24°C° 0 mm 1 mps 734 mmHg 60%
    11:00 +25°C° 0 mm 2 mps 734 mmHg 55%
    12:00 +27°C° 0 mm 3 mps 734 mmHg 51%
    13:00 +28°C° 0 mm 3 mps 734 mmHg 46%
    14:00 +28°C° 0 mm 3 mps 734 mmHg 41%
    15:00 +29°C° 0 mm 3 mps 733 mmHg 37%
    16:00 +29°C° 0 mm 3 mps 733 mmHg 36%
    17:00 +28°C° 0 mm 2 mps 734 mmHg 36%
    18:00 +27°C° 0 mm 2 mps 734 mmHg 36%
    19:00 +26°C° 0 mm 2 mps 734 mmHg 37%
    20:00 +25°C° 0 mm 1 mps 735 mmHg 39%
    21:00 +24°C° 0 mm 1 mps 735 mmHg 40%
    22:00 +23°C° 0 mm 1 mps 735 mmHg 42%
    23:00 +22°C° 0 mm 1 mps 735 mmHg 45%

    23 September, Monday

    Time Temperature Precipitation Wind Pressure Humidity
    00:00 +19°C° 0 mm 0 mps 735 mmHg 47%
    01:00 +19°C° 0 mm 0 mps 735 mmHg 47%
    02:00 +19°C° 0 mm 0 mps 735 mmHg 48%
    03:00 +18°C° 0 mm 0 mps 735 mmHg 49%
    04:00 +20°C° 0 mm 1 mps 735 mmHg 49%
    05:00 +20°C° 0 mm 1 mps 735 mmHg 50%
    06:00 +19°C° 0 mm 1 mps 735 mmHg 50%
    07:00 +21°C° 0 mm 1 mps 735 mmHg 46%
    08:00 +23°C° 0 mm 2 mps 736 mmHg 42%
    09:00 +25°C° 0 mm 2 mps 736 mmHg 38%
    10:00 +27°C° 0 mm 2 mps 736 mmHg 35%
    11:00 +29°C° 0 mm 2 mps 736 mmHg 32%
    12:00 +31°C° 0 mm 1 mps 736 mmHg 29%
    13:00 +32°C° 0 mm 2 mps 736 mmHg 28%
    14:00 +32°C° 0 mm 2 mps 736 mmHg 26%
    15:00 +34°C° 0 mm 2 mps 735 mmHg 24%
    16:00 +32°C° 0 mm 2 mps 735 mmHg 27%
    17:00 +31°C° 0 mm 2 mps 735 mmHg 30%
    18:00 +30°C° 0 mm 2 mps 735 mmHg 33%
    19:00 +29°C° 0 mm 2 mps 735 mmHg 38%
    20:00 +27°C° 0 mm 2 mps 736 mmHg 42%
    21:00 +26°C° 0 mm 1 mps 736 mmHg 46%
    22:00 +26°C° 0 mm 2 mps 736 mmHg 48%
    23:00 +25°C° 0 mm 2 mps 736 mmHg 50%
    Show more